Location: Axtheid
(49.6213°N, 11.8205°E)
Time: 14:46:20
(UTC+00:00)

ADEOS - Pass Details

Date: 18 February 2020
Orbit: 793 x 794 km, 98.9° (Epoch: 27 March)

Event Time Altitude Azimuth Distance (km) Brightness Sun altitude
Rises 03:48:30 0° 12° (NNE) 3,309 7.1 -24.8°
Reaches altitude 10° 03:50:51 10° 9° (N) 2,375 6.3 -24.4°
Maximum altitude 03:56:01 61° 290° (WNW) 898 3.5 -23.6°
Enters shadow 03:56:20 60° 272° (W) 908 3.5 -23.6°
